星链-6105 (STARLINK-6105 )

导读 | 豆包AI

STARLINK-6105是美国太空探索技术公司(SpaceX)发射的星链(Starlink)低轨互联网卫星,于北京时间2023年3月29日发射升空。它属于星链项目的第二代卫星组网卫星,主要用于为全球提供高速低延迟卫星互联网服务,尤其是服务偏远地区及地面网络覆盖不足区域,进一步扩充了星链星座的在轨规模。

Basic Information
目录编号:
56118
目录名称:
STARLINK-6105
国际标识:
2023-046AB
轨道中心:
EARTH
卫星名称:
星链-6105
卫星全名:
星链-6105 (STARLINK-6105 )
卫星状态:
已陨落 最后检测时间 2025-11-02
发射日期:
2023-03-29 UTC
国别 :
美国 (US)
星等 :
--
Orbit Information
数据来源 国际轨道数据
星历时间: 2025-11-02T00:24:33+0800
轨道信息已过期179天
半长轴: 6558.23km
偏心率: 0.0004626
轨道倾角: 42.986°
近地点辐角 313.305°
升交点赤经 46.615°
平近点角 46.745°
近地点: 177.061km
远地点: 183.129km
周期: 88.093分钟
每日圈数: 16.346426
Detailed Information
固有亮度:
5
最大亮度:
2.5
卫星平台:
Starlink v1.5
覆盖范围:
全球
运营商:
太空探索技术公司
运营商所在国:
美国
制造商(研发单位):
太空探索技术公司
制造商所在国:
美国
使用方式:
暂无
Satellite Introduction
星链(Starlink)计划是由太空探索技术公司(SpaceX)提出的一个巨型低轨卫星互联网星座项目,计划在2019年至2024年间在太空搭建由约1.2万颗卫星组成的“星链”网络,其中1584颗将部署在地球上空550千米处的近地轨道,并从2020年开始工作。该卫星仍在工作。